星链-36576(STARLINK-36576)

导读

STARLINK-36576是美国于2026年1月22日发射的星链卫星,属于SpaceX星链星座网络的组成部分。星链项目旨在构建全球卫星互联网,为偏远地区等提供高速网络服务,该卫星入轨后将进一步扩展星链系统的全球覆盖范围与服务能力。

基本信息
目录编号:
67534
目录名称:
STARLINK-36576
国际标识:
2026-014C
轨道中心:
EARTH
卫星名称:
星链-36576
卫星全名:
星链-36576(STARLINK-36576)
卫星状态:
在轨 (已飞行226 天)
发射日期:
2026-01-22 UTC
国别 :
美国 (US)
星等 :
--
轨道信息
数据来源 国际轨道数据
星历时间: 2026-09-05T13:05:20+0800
10小时前
查看轨道信息
半长轴: 6843.706km
偏心率: 0.0001755
轨道倾角: 97.285°
近地点辐角 86.510°
升交点赤经 133.769°
平近点角 273.635°
近地点: 464.367km
远地点: 466.771km
周期: 93.907分钟
每日圈数: 15.334364
详细信息
固有亮度:
5
最大亮度:
2.5
卫星平台:
Starlink V1.0
覆盖范围:
全球
运营商:
太空探索技术公司
运营商所在国:
美国
制造商(研发单位):
太空探索技术公司
制造商所在国:
美国
使用方式:
暂无
卫星简介
Starlink 计划是 SpaceX 推出的全球卫星互联网项目,通过发射低轨道卫星,为全球尤其是偏远地区提供高速、低延迟的互联网服务。自 2019 年起,Starlink 已部署数千颗卫星,旨在缩小全球数字鸿沟,推动互联网普及。该项目还为军事、航空等行业提供通信支持,带来广泛经济效益。
2D轨道图
3D轨道图
轨道高度分析图
轨道倾角分析图
轨道综合分析图
查看轨道综合分析图
交会数据列表
事件ID 空间交会对象 最接近时刻(TCA) 交会距离 交会风险概率(CRP) 交会风险指数(CRI) 操作
CDM_260907-155405-213706-753421
2026-09-07T
15:54:13+0000
2.593 km
极远距离
1.640186E-6 低风险 0.39
CDM_260906-145604-867306-753422
2026-09-06T
14:56:58+0000
2.925 km
极远距离
1.34108E-6 低风险 0.38
CDM_260907-114005-197106-753421
2026-09-07T
11:40:41+0000
2.956 km
极远距离
1.277401E-6 低风险 0.37
CDM_260906-031205-083406-753421
2026-09-06T
03:12:52+0000
2.902 km
极远距离
1.032E-6 低风险 0.35
CDM_260907-221505-325806-753421
2026-09-07T
22:15:17+0000
2.990 km
极远距离
9.278965E-7 极低风险 0.34